Flag for Netherlands

Past Weather in Tilburg, Netherlands — Yesterday and Last 2 Weeks

Now
77 °F

Partly sunny.


Feels Like: 79 °F
Forecast: 79 / 67 °F
Wind: 6 mph from South

Location: Gilze-Rijen
Current Time: Aug 14, 2020 at 12:29:29 pm
Latest Report: Aug 14, 2020 at 11:55 am
Visibility: N/A
Pressure29.89 "Hg
Humidity: 65%
Dew Point: 64 °F
Location of TilburgLocation

Past Weather in Tilburg — Graph

°F

Tilburg Temperature Yesterday

Maximum temperature yesterday: 90 °F (at 1:55 pm)
Minimum temperature yesterday: 68 °F (at 9:25 pm)
Average temperature yesterday: 76 °F

High & Low Weather Summary for the Past Weeks

 TemperatureHumidityPressure
High97 °F (Aug 8, 3:55 pm)100% (Aug 3, 4:25 am)30.15 "Hg (Aug 3, 4:25 am)
Low45 °F (Aug 4, 5:25 am)18% (Aug 8, 4:25 pm)29.83 "Hg (Aug 13, 2:25 pm)
Average74 °F62%29.98 "Hg
* Reported Jul 30 11:25 am — Aug 14 11:25 am, Tilburg. Weather by CustomWeather, © 2020

Note: Actual official high and low records may vary slightly from our data, if they occured in-between our weather recording intervals... More about our weather records

Tilburg Weather History for the Previous 24 Hours

Scroll right to see more
 ConditionsComfort  
Time TempWeatherWind HumidityBarometerVisibility
11:25 am
Fri, Aug 14
77 °FPassing clouds.6 mph65%29.89 "HgN/A
10:55 am77 °FWarm.6 mph69%29.89 "HgN/A
10:25 am75 °FMild.8 mph69%29.89 "HgN/A
9:55 am73 °FMild.5 mph78%29.89 "HgN/A
9:25 am72 °FScattered clouds.3 mph78%29.89 "HgN/A
9:16 am72 °FPartly sunny.5 mph78%29.89 "HgN/A
8:55 am72 °FMild.5 mph83%29.89 "HgN/A
8:43 am70 °FFog.6 mph83%29.89 "Hg6 mi
8:30 am70 °FFog.1 mph88%29.89 "Hg5 mi
8:00 am68 °FFog.2 mph94%29.89 "Hg2 mi
7:41 am66 °FFog.1 mph100%29.89 "Hg2 mi
7:25 am64 °FFog.2 mph100%29.89 "Hg2 mi
6:55 am64 °FFog.2 mph100%29.89 "Hg1 mi
6:35 am64 °FFog.1 mph100%29.89 "Hg1 mi
6:06 am64 °FFog.2 mph94%29.89 "Hg1 mi
5:59 am64 °FFog.2 mph94%29.86 "Hg1 mi
5:55 am63 °FFog.2 mph100%29.86 "Hg1 mi
5:25 am64 °FFog.1 mph94%29.86 "Hg1 mi
4:55 am66 °FFog.2 mph94%29.86 "Hg1 mi
4:25 am66 °FFog.5 mph94%29.86 "Hg2 mi
3:55 am66 °FFog.6 mph94%29.86 "Hg2 mi
3:25 am66 °FFog.6 mph100%29.86 "Hg1 mi
3:01 am66 °FFog.2 mph94%29.86 "Hg2 mi
2:55 am66 °FFog.1 mph94%29.86 "Hg1 mi
2:25 am66 °FFog.1 mph100%29.89 "Hg2 mi
1:55 am66 °FFog.3 mph94%29.89 "Hg3 mi
1:25 am68 °FFog.2 mph94%29.89 "Hg3 mi
12:56 am68 °FFog.1 mph94%29.89 "Hg4 mi
12:55 am68 °FFog.2 mph94%29.89 "Hg5 mi
12:29 am68 °FFog.2 mph94%29.89 "Hg4 mi
12:13 am68 °FFog.1 mph94%29.89 "Hg4 mi
11:59 pm
Thu, Aug 13
68 °FFog.1 mph94%29.89 "Hg5 mi
11:55 pm68 °FFog.3 mph94%29.89 "Hg4 mi
11:26 pm68 °FFog.5 mph94%29.89 "Hg5 mi
10:55 pm68 °FOvercast.3 mph94%29.89 "HgN/A
10:25 pm68 °FOvercast.3 mph94%29.89 "HgN/A
9:55 pm68 °FOvercast.2 mph94%29.86 "HgN/A
9:25 pm68 °FHigh level clouds.7 mph94%29.86 "HgN/A
8:55 pm70 °FCloudy.3 mph88%29.86 "HgN/A
8:25 pm72 °FOvercast.8 mph83%29.86 "HgN/A
7:55 pm72 °FThunderstorms. Mostly cloudy.7 mph78%29.86 "HgN/A
7:39 pm75 °FThunderstorms. More clouds than sun.7 mph69%29.86 "HgN/A
7:25 pm75 °FBroken clouds.9 mph65%29.86 "HgN/A
7:04 pm75 °FThunderstorms. Broken clouds.13 mph65%29.86 "HgN/A
6:28 pm77 °FThunderstorms. Overcast.5 mph74%29.83 "HgN/A
6:25 pm77 °FOvercast.5 mph79%29.83 "HgN/A
5:55 pm79 °FThunderstorms. Overcast.5 mph70%29.83 "HgN/A
5:25 pm81 °FThunderstorms. More clouds than sun.2 mph58%29.83 "HgN/A
4:55 pm86 °FThunderstorms. More clouds than sun.3 mph55%29.83 "HgN/A
4:25 pm86 °FThunderstorms. Overcast.6 mph59%29.83 "HgN/A
4:02 pm88 °FThunderstorms. Overcast.8 mph52%29.83 "HgN/A
3:25 pm90 °FMore clouds than sun.3 mph46%29.83 "HgN/A
2:25 pm90 °FOvercast.6 mph46%29.83 "HgN/A
1:55 pm90 °FOvercast.5 mph46%29.86 "HgN/A
1:25 pm88 °FPartly sunny.6 mph49%29.86 "HgN/A
12:55 pm86 °FPartly sunny.6 mph55%29.86 "HgN/A
12:25 pm84 °FOvercast.5 mph55%29.86 "HgN/A
Weather by CustomWeather, © 2020

See weather overview